Theta_e
333 341 342 342 342 341 340 341 340 340 338 337 339 339 338 337 338 337 338 338 335 337 338 337 333 337 331 330 336 340 338 340 340 344 344 343 341 341 343 332 333 336 334
332 338 340 341 342 342 341 337 336 336 338 338 338 340 338 337 336 335 336 337 341 342 341 340 343 334 332 344 345 345 344 343 341 338 338 336 337 339 342 340 336 331 333
331 332 336 338 339 341 337 330 329 331 338 339 338 338 340 338 338 339 340 337 340 340 343 344 344 335 343 344 346 348 347 347 344 345 341 331 336 342 342 341 339 338 335
334 330 330 334 336 335 331 328 331 331 333 339 340 338 338 341 338 336 341 341 339 336 339 335 334 335 342 347 347 346 347 346 346 346 344 336 338 338 342 342 342 340 339
340 338 337 340 339 333 331 329 334 336 338 338 339 340 338 338 341 341 335 335 332 332 333 334 337 339 341 346 347 346 346 348 347 345 344 329 330 331 329 329 335 334 334
338 338 339 340 338 333 338 335 338 338 337 339 339 340 337 341 341 341 341 334 338 336 340 336 330 327 336 345 346 346 345 344 344 341 333 335 333 333 332 331 329 328 328
335 335 337 337 335 338 339 338 336 336 335 335 337 337 337 340 341 339 342 336 344 337 334 331 330 326 340 344 347 346 346 346 344 336 324 323 324 324 325 322 325 328 332
337 337 338 336 337 338 337 335 335 337 335 334 335 336 337 337 339 340 341 336 338 339 334 335 335 336 342 345 347 347 347 344 339 332 327 325 322 321 320 328 338 339 339
334 336 338 337 336 336 333 333 332 332 335 338 339 338 340 342 342 341 340 336 340 336 335 334 335 341 345 345 345 345 343 342 340 325 321 319 319 317 315 315 315 317 318
333 334 337 337 335 335 334 334 333 336 337 339 338 337 338 337 336 337 334 337 340 337 331 326 334 342 343 344 345 346 344 342 330 320 318 314 314 315 313 311 310 310 309
345 340 335 339 338 336 335 337 336 334 335 335 335 332 335 334 337 336 335 339 337 334 331 341 341 342 342 342 343 346 343 340 327 319 320 319 319 318 316 314 313 311 311
346 344 337 340 337 335 335 332 333 334 335 335 340 342 342 341 341 336 338 335 333 340 347 348 349 348 346 342 344 345 341 340 336 323 323 323 323 322 322 321 321 320 318
346 343 345 345 343 341 338 339 339 340 341 338 344 346 345 344 343 336 336 334 343 346 347 348 346 344 342 342 343 346 341 342 344 342 333 330 327 327 327 326 325 324 323
345 343 346 346 344 344 345 347 344 344 343 346 346 344 345 344 343 335 334 335 341 345 347 343 343 343 344 344 343 341 341 342 344 347 346 345 340 334 329 329 329 328 328
345 345 344 347 347 345 345 341 346 346 347 345 345 346 345 344 340 336 345 337 341 346 346 340 346 347 345 345 344 344 344 345 345 348 346 346 347 346 344 337 330 329 329
345 345 347 347 346 346 343 343 344 347 347 347 346 345 346 345 343 343 348 347 341 345 347 341 347 348 345 344 345 347 346 346 344 343 347 347 347 346 346 345 339 335 334
347 348 348 347 346 347 347 347 347 348 348 344 347 347 345 347 347 347 348 345 344 345 341 342 345 347 346 344 346 347 345 345 346 344 345 345 344 345 347 347 345 343 345
348 349 347 345 347 347 347 349 349 350 349 346 347 346 347 345 349 348 346 345 344 339 347 348 349 348 347 346 346 345 345 346 347 347 346 345 348 346 347 348 346 345 348
344 348 345 344 345 344 349 348 350 351 350 347 339 342 344 346 346 345 342 342 343 346 348 348 349 344 345 346 346 345 346 346 347 347 347 348 349 346 348 348 346 346 349
345 346 347 349 343 346 347 349 351 353 351 349 341 341 346 346 347 345 344 346 349 349 351 353 345 346 347 347 347 346 345 346 348 347 346 346 348 345 348 345 345 345 346
346 346 347 349 346 348 350 349 349 353 354 350 350 337 342 348 349 352 347 347 350 349 351 349 344 346 349 345 349 349 347 345 347 346 343 342 343 343 343 343 344 342 340
345 345 350 349 350 347 348 347 349 351 351 352 351 350 338 348 351 350 347 344 355 351 351 347 344 346 348 344 344 350 352 346 342 341 338 338 336 335 340 341 342 339 339
344 345 351 350 350 345 348 347 349 352 354 352 353 349 350 343 351 350 344 349 351 353 343 340 337 350 352 348 346 345 351 347 345 345 341 340 341 341 342 341 338 339 339
344 346 350 351 351 345 350 351 352 351 353 354 351 351 351 345 352 353 350 352 351 353 350 343 346 347 350 352 350 348 343 335 330 337 341 342 341 343 342 342 342 343 344
344 347 350 350 352 346 349 351 352 350 350 351 351 349 348 348 348 351 352 353 350 351 350 351 341 339 348 348 346 344 342 340 342 342 340 339 339 342 343 343 343 345 346
346 348 348 349 350 347 350 353 350 350 352 351 350 351 347 342 343 342 345 346 347 349 349 350 350 341 341 343 343 345 344 339 339 338 338 338 337 340 342 345 344 347 348
Wind_Speed
17 18 16 17 18 16 17 15 16 17 18 19 22 24 25 24 27 28 27 33 28 25 21 19 21 23 22 24 25 25 25 23 21 20 19 19 18 17 16 15 15 16 16
21 19 18 17 18 17 18 17 17 16 17 17 20 21 24 23 27 28 28 29 24 22 21 20 21 24 25 24 24 24 24 24 23 20 16 16 15 14 12 13 14 14 15
21 20 19 18 18 17 18 17 17 17 17 18 19 20 22 22 22 20 23 22 20 20 20 21 22 24 26 26 22 19 19 17 18 16 14 13 15 15 13 13 13 13 12
21 20 20 18 18 18 17 15 15 16 16 18 18 18 19 21 21 21 22 20 19 19 19 20 21 22 22 22 20 20 22 22 18 13 10 10 12 12 13 12 11 12 10
20 19 18 19 17 16 15 15 15 16 17 18 19 18 18 19 19 21 20 19 18 18 18 17 18 19 21 23 20 18 21 19 9 6 7 10 10 11 11 10 9 8 8
19 18 18 18 16 16 16 16 17 17 17 19 19 17 18 18 19 18 18 18 18 17 16 16 16 16 18 24 19 17 20 14 10 10 10 9 12 11 11 10 9 8 7
18 19 20 19 17 17 17 18 18 17 17 17 17 17 17 17 16 17 17 17 17 18 19 18 19 21 25 24 20 17 17 12 12 10 9 9 10 9 9 8 8 7 7
16 20 20 19 19 19 18 18 17 16 17 18 18 18 18 17 17 15 15 16 18 19 20 21 21 23 28 24 19 18 16 9 14 12 10 10 10 9 9 9 9 8 7
16 20 20 19 19 19 18 17 17 18 18 17 17 17 16 17 16 15 14 16 18 20 20 21 24 24 24 21 18 17 13 9 15 14 12 12 11 11 11 9 8 6 4
15 18 18 18 18 18 18 17 16 16 18 17 16 16 15 15 14 14 15 18 19 20 20 24 26 24 21 18 16 14 8 9 16 12 13 14 14 15 14 13 12 11 10
15 13 16 18 17 17 17 16 14 14 15 15 15 17 15 14 15 16 15 18 18 19 24 25 24 25 21 20 15 12 7 11 19 12 14 16 15 16 16 16 16 16 16
17 15 16 16 15 15 14 14 14 15 15 16 18 18 16 14 13 14 17 17 22 23 20 18 15 13 15 17 15 11 6 8 15 16 16 16 16 16 17 17 17 17 17
18 13 14 16 17 13 13 15 15 14 12 13 15 14 16 12 11 11 17 23 24 19 17 16 14 17 13 14 13 11 6 5 10 16 21 19 17 17 17 16 18 17 17
25 16 15 13 17 12 11 11 13 14 14 13 18 18 18 12 10 14 18 23 19 16 14 16 13 14 13 10 11 8 4 5 9 11 16 17 18 18 17 17 17 17 17
22 26 21 19 16 12 13 14 14 13 15 13 15 17 20 15 17 19 20 19 13 13 11 10 8 10 11 7 9 7 1 4 7 9 11 15 15 16 17 19 18 17 17
30 24 20 21 15 14 15 18 18 17 15 18 18 17 22 19 20 19 13 15 14 10 5 7 12 9 7 6 10 8 4 3 9 7 8 11 12 13 14 17 18 17 18
24 23 21 17 16 13 15 20 21 15 17 17 18 19 21 22 21 15 11 13 9 8 8 15 11 7 9 6 4 6 3 2 11 8 8 9 10 11 13 16 18 15 16
21 20 16 21 20 18 14 13 18 17 13 13 13 19 19 22 21 14 15 15 12 14 13 9 5 7 7 1 1 6 1 3 7 5 7 11 10 14 14 15 18 15 15
27 20 14 16 22 23 18 17 16 16 13 10 12 17 25 25 20 20 14 11 16 12 5 1 6 4 6 3 3 3 3 4 4 8 11 9 10 16 16 14 18 15 13
27 22 21 20 19 25 19 21 19 17 20 12 10 22 26 25 21 20 15 14 13 8 4 4 6 6 3 2 2 7 4 1 5 5 8 9 9 15 13 16 15 15 14
27 24 24 24 19 21 25 22 20 17 20 20 12 15 20 22 18 15 15 13 11 8 10 8 7 7 0 6 2 5 6 4 2 3 4 5 7 7 10 12 13 16 17
29 24 24 24 24 23 22 26 18 18 18 24 15 10 21 22 18 18 14 15 8 10 10 7 10 8 1 3 6 3 0 8 6 2 4 3 6 5 7 10 11 14 14
31 25 28 27 26 24 25 25 22 15 17 20 17 12 14 20 19 13 11 16 10 8 8 10 15 7 3 2 6 5 1 3 3 3 3 6 7 10 11 12 12 12 12
32 26 31 29 27 28 27 24 21 23 25 20 17 16 16 17 21 14 15 13 13 10 8 6 15 10 7 4 1 1 3 4 1 1 3 2 9 9 11 14 18 16 18
34 32 33 32 27 31 30 23 23 25 21 21 19 20 19 18 20 19 19 19 17 13 8 8 12 14 10 8 4 3 1 3 5 5 5 7 3 6 11 13 19 19 21
37 33 33 34 29 34 28 23 25 27 22 20 25 24 18 17 20 18 13 21 18 19 16 13 14 14 15 13 11 7 8 6 4 4 9 12 12 6 5 12 16 17 19
Wind_Direction
139 133 135 125 123 124 117 110 106 105 106 105 102 104 94 93 96 91 90 106 92 95 101 104 99 95 100 103 101 100 99 96 90 90 91 91 87 83 83 84 91 90 90
139 137 132 126 126 124 114 108 103 107 110 114 109 111 107 106 97 89 89 91 96 99 104 106 103 102 106 105 102 99 91 91 83 77 83 91 92 85 83 85 84 86 89
141 138 132 128 127 123 119 115 110 111 108 115 116 114 110 112 107 100 104 107 106 106 104 104 107 105 106 102 96 92 89 88 80 68 72 84 95 92 82 74 79 79 83
140 137 134 128 127 125 123 118 112 113 110 111 117 114 114 109 109 108 109 113 112 112 106 107 108 111 115 107 100 88 91 94 94 94 38 55 85 90 88 85 78 74 75
136 140 137 133 133 129 126 121 116 114 111 110 112 113 114 112 109 110 112 114 112 114 114 113 113 114 112 108 99 94 88 98 87 59 48 60 79 82 78 82 83 70 73
128 137 139 136 128 126 123 121 120 116 113 111 114 113 115 111 114 115 112 114 112 114 112 103 100 102 111 114 108 104 102 91 72 39 65 74 74 76 74 78 83 83 82
133 140 135 134 130 126 123 122 120 118 112 113 115 116 118 117 115 119 117 117 112 109 99 96 94 100 112 114 97 102 112 86 49 46 58 68 75 77 79 79 80 80 80
140 136 133 133 131 128 127 126 123 120 114 114 114 116 119 121 119 121 122 119 110 101 95 89 92 103 111 113 108 98 99 79 39 44 47 61 66 66 68 77 80 78 78
146 135 133 133 132 130 129 128 124 121 118 116 118 121 119 117 121 123 123 116 110 102 93 91 96 104 107 108 104 106 95 74 27 28 55 68 76 74 71 71 65 61 51
126 133 132 133 131 130 132 132 131 125 123 122 122 116 113 112 112 108 115 113 109 103 99 98 104 106 107 111 111 108 100 77 28 44 64 74 78 75 74 76 74 70 65
109 107 135 132 135 130 134 133 131 127 128 131 129 119 109 111 110 107 113 114 112 113 103 100 102 102 104 101 99 112 122 58 26 57 68 73 75 76 77 75 71 69 66
136 120 118 118 128 130 129 130 130 131 134 136 132 135 119 112 114 110 117 112 118 112 103 93 85 90 91 82 98 114 138 65 27 51 62 67 67 68 69 69 68 65 63
150 132 127 115 124 110 136 124 119 126 132 146 143 140 126 115 120 120 121 121 113 109 90 81 78 74 93 89 85 132 162 39 16 40 48 51 53 57 60 61 60 57 57
153 141 156 143 141 147 128 115 138 122 115 137 148 144 136 140 124 132 124 129 115 93 92 98 94 89 82 77 67 112 35 0 8 22 34 38 45 48 47 46 46 47 48
163 152 157 155 158 141 153 157 163 143 117 117 149 145 145 147 123 127 120 126 114 99 104 101 117 114 109 66 114 112 29 18 16 19 22 29 30 33 38 38 35 36 37
159 158 156 156 155 149 139 119 135 155 121 119 118 133 152 150 133 127 117 126 114 100 112 129 140 139 121 82 137 98 166 11 3 3 3 11 15 20 23 28 29 33 32
161 159 165 169 179 162 138 121 135 136 127 129 130 133 133 143 139 126 130 130 128 140 157 142 121 109 139 90 117 118 105 348 23 19 24 12 9 13 13 15 16 19 22
172 181 186 181 180 172 156 149 144 156 133 148 145 153 148 148 138 140 150 158 173 129 117 94 81 96 135 123 149 137 121 333 1 338 11 13 27 26 11 5 7 7 7
184 186 175 164 162 157 159 160 167 164 165 135 159 161 150 144 148 148 156 161 148 147 139 341 99 108 159 218 248 212 139 5 340 350 16 351 11 12 6 3 1 2 2
186 190 172 183 171 163 163 154 158 177 177 156 143 155 152 153 157 161 156 159 159 176 199 176 195 153 128 336 231 223 231 297 270 321 24 2 352 358 348 350 352 353 356
187 186 173 188 178 169 158 167 160 170 181 190 164 154 161 159 158 169 171 179 165 178 173 185 187 188 4 353 270 224 209 156 68 164 94 328 343 340 331 336 342 347 352
188 190 178 191 188 175 170 167 167 164 176 188 178 180 172 170 167 172 180 193 182 168 200 214 202 181 219 19 2 334 52 215 141 116 22 77 18 300 300 315 335 348 344
190 190 183 189 196 186 169 164 167 171 166 175 181 178 170 185 172 168 164 173 187 193 210 222 197 206 140 180 33 41 86 134 155 178 275 353 357 10 9 8 352 347 351
193 194 189 193 199 188 179 182 190 192 181 188 188 196 182 181 180 179 188 192 195 195 205 184 193 201 190 160 295 43 20 8 7 164 176 342 341 336 333 337 348 348 354
195 194 193 197 197 189 181 192 197 195 196 195 194 188 197 205 195 199 200 206 201 201 187 204 207 215 210 194 194 124 276 339 314 326 316 260 266 341 344 309 322 337 352
196 196 196 202 198 189 190 193 204 193 195 196 189 189 195 200 200 198 202 219 214 210 209 220 235 221 224 223 223 237 246 245 297 282 288 294 292 285 283 314 292 324 343